DECAYED
Showing default

AISTECHSAT-3, 44103 (Decayed)

Orbit data source: Space-Track

AISTECHSAT-3, 44103 was a payload satellite owned by AISTech (ES) in LEO that was launched on Mon, 01 Apr 2019 UTC via a PSLV-QL launch vehicle from the Sirharikota (SRI). Payloads include a variety of satellites, spacecraft, and rockets equipped with specific instruments for various scientific and technological missions. These include communications satellites like Starlink; space stations such as the ISS; scientific satellites like the Hubble; Earth observation satellites from companies like Planet Labs, Umbra, and HawkEye 360; GPS; miniature CubeSats for education and research; and military/defense satellites.

Not visible in the next 10 days
AISTECHSAT-3 details
Identifier
44103, 2019-018AB
Orbit
Decayed
Last TLE update10 months ago
Origin
Flag of ESAISTech (ES / SPN)
ManufacturerAISTech
MissionDecayed Commercial Communications
Bus & MotorCUBESAT 2U, Unknown motor
Mass2.3 kg wet, 2.3 kg dry
Launch date (UTC)
2019-04-01 (6 years ago)
Launch vehicle
PSLV-QL
Launch site
Sirharikota (SRI)
Object type
Payload
Rocket body
Debris
Shape & HBRBox, 0.2 m
Radar Cross Section0.040 m², Small (<0.1 m²)

Expand to show TLE details & history

TLE from 10 months ago
0 AISTECHSAT-3
1 44103U 19018AB  24110.23946520  .15151224  24602-5  24815-3 0  9993
2 44103  97.1722 178.6502 0011750 259.7908 100.2071 16.47479668282343
Epoch: 2024-04-19T05:44Z
Definitive object data (Epoch: 2024-04-19T05:44:49.793Z)
Latitude-0.00002°
Longitude-115.38149°
Altitude150.616 km
Speed7.815 km/s
True Right ascension11h 54m 36s
True Declination0° 00' 00"
Sunlit
Object was in full shadow at TLE epoch
Visualization observer readout
Observer readout values are unavailable because the object's trajectory could not be propagated. This is usually caused when the trajectory data is faulty or the object's orbit has decayed.
Visualization observer readout
Observer readout values are unavailable because the object's trajectory could not be propagated. This is usually caused when the trajectory data is faulty or the object's orbit has decayed.
Orbital elements
Apogee altitude150.431 km
Perigee altitude135.107 km
Semi-major axis6,520.906 km
Eccentricity0.001175
Inclination97.1722°
RAAN178.6502°
Arg. of periapsis259.7908°
True anomaly100.33958°
Mean anomaly100.2071°
Eccentric anomaly100.27334°
Mean motion4.12175 °/min
BSTAR0.00024815
Orbital period87.34 mins
Loading maneuver chart data...

AISTECHSAT-3 Visibility forecast

Observer location: undefined°, undefined

This satellite is decayed
Span
Click to sort rows by Start time (UTC) header in descending order
Start Az.
Max El. time (UTC)
Max El. Az.
Max El.
End time (UTC)
End Az.
|